Change the Weather History Date:

Tuesday, September 10, 2013

  Actual Average Record
Temperature  
Mean Temperature 76 °F 74 °F  
Max Temperature 87 °F 86 °F 100 °F (2000)
Min Temperature 64 °F 61 °F 47 °F (1956)
Degree Days  
Heating Degree Days 0 0  
Month to date heating degree days 0 0  
Since 1 July heating degree days 0 0  
Cooling Degree Days 11 9  
Month to date cooling degree days 143 101  
Year to date cooling degree days 1871 1627  
Growing Degree Days 25 (Base 50)    
Moisture  
Dew Point 61 °F    
Average Humidity 64    
Maximum Humidity 87    
Minimum Humidity 40    
Precipitation  
Precipitation T in 0.09 in 0.96 in (1980)
Month to date precipitation T 0.86  
Year to date precipitation 9.78 13.93  
Snow  
Snow 0.00 in 0.00 in 0.00 in (2002)
Month to date snowfall 0.0 0.0  
Since 1 July snowfall 0.0 0.0  
Since 1 September snowfall 0.0 0.0  
Snow Depth 0.00 in    
Sea Level Pressure  
Sea Level Pressure 29.96 in    
Wind  
Wind Speed 13 mph (SSE)    
Max Wind Speed 25 mph    
Max Gust Speed 30 mph    
Visibility 10 miles    
Events      
T = Trace of Precipitation, MM = Missing Value Source: NWS Daily Summary

Daily Weather History Graph

Daily Weather History Graph

Search for Another Location

Airport or City:

Trip Planner

Search our weather history database for the weather conditions in past years. The results will help you decide how hot, cold, wet, or windy it might be!

Date:

Astronomy

Sep. 10, 2013 Rise Set
Actual Time 7:27 AM CDT 8:00 PM CDT
Civil Twilight 7:02 AM CDT 8:25 PM CDT
Nautical Twilight 6:32 AM CDT 8:54 PM CDT
Astronomical Twilight 6:02 AM CDT 9:24 PM CDT
Moon 12:38 PM CDT (9/10) 11:22 PM CDT (9/10)
Length of Visible Light 13h 22m
Length of Day
12h 32m
Waxing Crescent, 28% of the Moon is Illuminated
Sep 10
Waxing Crescent
Sep 12
First Quarter
Sep 19
Full
Sep 26
Last Quarter
Oct 4
New

Hourly Weather History & Observations

Time (CDT) Temp. Heat Index Dew Point Humidity Pressure Visibility Wind Dir Wind Speed Gust Speed Precip Events Conditions
12:53 AM 73.0 °F - 57.9 °F 59% 29.88 in 10.0 mi SSE 10.4 mph - N/A   Clear
1:53 AM 72.0 °F - 57.9 °F 61% 29.88 in 10.0 mi SSE 8.1 mph - N/A   Clear
2:53 AM 71.1 °F - 57.9 °F 63% 29.88 in 10.0 mi SSE 8.1 mph - N/A   Clear
3:53 AM 69.1 °F - 59.0 °F 70% 29.88 in 10.0 mi SSE 9.2 mph - N/A   Clear
4:53 AM 68.0 °F - 59.0 °F 73% 29.89 in 10.0 mi SSE 6.9 mph - N/A   Clear
5:53 AM 70.0 °F - 61.0 °F 73% 29.90 in 10.0 mi South 12.7 mph - N/A   Clear
6:53 AM 66.9 °F - 60.1 °F 79% 29.92 in 10.0 mi SE 5.8 mph - N/A   Partly Cloudy
7:53 AM 64.9 °F - 60.1 °F 84% 29.95 in 10.0 mi SE 6.9 mph - N/A   Partly Cloudy
8:53 AM 70.0 °F - 63.0 °F 78% 29.96 in 10.0 mi SSE 13.8 mph - N/A   Scattered Clouds
9:46 AM 73.4 °F - 62.6 °F 69% 30.12 in 10.0 mi SSE 11.5 mph - N/A   Mostly Cloudy
9:53 AM 72.0 °F - 63.0 °F 73% 29.99 in 10.0 mi SSE 15.0 mph - N/A   Mostly Cloudy
10:53 AM 73.9 °F - 63.0 °F 68% 30.01 in 10.0 mi South 12.7 mph - N/A   Mostly Cloudy
11:25 AM 73.4 °F - 62.6 °F 69% 30.15 in 10.0 mi South 15.0 mph - N/A   Mostly Cloudy
11:53 AM 75.9 °F - 63.0 °F 64% 30.00 in 10.0 mi South 11.5 mph - N/A   Mostly Cloudy
12:53 PM 82.0 °F 83.0 °F 62.1 °F 51% 29.98 in 10.0 mi South 11.5 mph 23.0 mph N/A   Mostly Cloudy
1:53 PM 84.0 °F 84.4 °F 61.0 °F 46% 29.97 in 10.0 mi SSE 13.8 mph - N/A   Mostly Cloudy
2:53 PM 84.2 °F 83.8 °F 59.0 °F 42% 30.11 in 10.0 mi South 5.8 mph - N/A   Mostly Cloudy
3:53 PM 86.0 °F 85.4 °F 59.0 °F 40% 29.92 in 10.0 mi SE 19.6 mph 26.5 mph N/A   Mostly Cloudy
4:53 PM 84.9 °F 84.2 °F 57.9 °F 40% 29.90 in 10.0 mi SE 21.9 mph 25.3 mph N/A   Scattered Clouds
5:53 PM 84.0 °F 83.8 °F 59.0 °F 43% 29.90 in 10.0 mi SE 17.3 mph - N/A   Scattered Clouds
6:53 PM 82.9 °F 82.8 °F 59.0 °F 44% 29.91 in 10.0 mi SSE 16.1 mph - N/A   Mostly Cloudy
7:53 PM 80.1 °F 81.1 °F 61.0 °F 52% 29.94 in 10.0 mi SE 20.7 mph - N/A   Mostly Cloudy
8:53 PM 75.9 °F - 63.0 °F 64% 29.96 in 10.0 mi SE 17.3 mph 24.2 mph 0.00 in   Scattered Clouds
9:53 PM 75.9 °F - 63.0 °F 64% 29.98 in 10.0 mi SE 12.7 mph - N/A   Scattered Clouds
10:53 PM 73.9 °F - 64.0 °F 71% 30.00 in 10.0 mi SSE 17.3 mph - N/A   Scattered Clouds
11:53 PM 73.0 °F - 63.0 °F 71% 30.00 in 10.0 mi SSE 11.5 mph - N/A   Scattered Clouds